San Jose, Costa Rica

8:34 AM CST on February 23, 2017 (GMT -0600)
Juan Santamaria International

Weather History for MROC - April, 2013

Change the Weather History Date:

Wednesday, April 24, 2013

  Actual Average Record
Temperature  
Mean Temperature 75 °F -  
Max Temperature 87 °F 81 °F 97 °F (2014)
Min Temperature 63 °F 65 °F 61 °F (2015)
Cooling Degree Days 10    
Growing Degree Days 25 (Base 50)    
Moisture  
Dew Point 57 °F    
Average Humidity 52    
Maximum Humidity 84    
Minimum Humidity 23    
Precipitation  
Precipitation 0.00 in 0.30 in - ()
Sea Level Pressure  
Sea Level Pressure 29.96 in    
Wind  
Wind Speed 10 mph ()    
Max Wind Speed 18 mph    
Max Gust Speed 21 mph    
Visibility 8.9 miles    
Events      
Averages and records for this station are not official NWS values.
T = Trace of Precipitation, MM = Missing Value Source: Averaged Metar Reports

Daily Weather History Graph

Daily Weather History Graph

Search for Another Location

Airport or City:

Trip Planner

Search our weather history database for the weather conditions in past years. The results will help you decide how hot, cold, wet, or windy it might be!

Date:

Astronomy

Apr. 24, 2013 Rise Set
Actual Time 5:22 AM CST 5:47 PM CST
Civil Twilight 5:00 AM CST 6:09 PM CST
Nautical Twilight 4:35 AM CST 6:34 PM CST
Astronomical Twilight 4:09 AM CST 7:00 PM CST
Moon 4:55 PM CST (4/24) 4:13 AM CST (4/24)
Length of Visible Light 13h 08m
Length of Day
12h 25m
Waxing Gibbous, 98% of the Moon is Illuminated
Apr 24
Waxing Gibbous
Apr 25
Full
May 2
Last Quarter
May 9
New
May 17
First Quarter

Hourly Weather History & Observations

Time (CST) Temp. Heat Index Dew Point Humidity Pressure Visibility Wind Dir Wind Speed Gust Speed Precip Events Conditions
12:00 AM 71 °F - 56 °F 50% 29.81 in 12 mi East 18.4 mph - -  
12:00 AM 69.8 °F - 55.4 °F 60% 30.01 in - East 18.4 mph - N/A   Clear
1:00 AM 69.8 °F - 55.4 °F 60% 29.99 in - East 15.0 mph - N/A   Clear
2:00 AM 68.0 °F - 55.4 °F 64% 29.98 in - NE 3.5 mph - N/A   Clear
3:00 AM 65 °F - 54 °F 60% 29.83 in 12 mi NE 5.8 mph - -  
3:00 AM 64.4 °F - 53.6 °F 68% 29.98 in - NE 5.8 mph - N/A   Clear
4:00 AM 64.4 °F - 55.4 °F 73% 29.99 in - NE 8.1 mph - N/A   Clear
5:00 AM 66.2 °F - 55.4 °F 68% 30.01 in - NE 9.2 mph 20.7 mph N/A   Clear
6:00 AM 66 °F - 62 °F 84% 29.89 in 12 mi ENE 12.7 mph - -   Clear
6:00 AM 66.2 °F - 55.4 °F 68% 30.03 in - ENE 12.7 mph - N/A   Clear
7:00 AM 71.6 °F - 57.2 °F 60% 30.04 in - NE 8.1 mph - N/A   Clear
8:00 AM 77.0 °F - 53.6 °F 44% 30.05 in - ESE 9.2 mph - N/A   Clear
9:00 AM 80 °F - 53 °F 28% 29.88 in 12 mi ESE 11.5 mph - -  
9:00 AM 80.6 °F 80.3 °F 53.6 °F 39% 30.05 in - ESE 11.5 mph - N/A   Clear
10:00 AM 82.4 °F 81.4 °F 53.6 °F 37% 30.05 in - East 12.7 mph - N/A   Clear
11:00 AM 84.2 °F 83.0 °F 55.4 °F 37% 30.04 in 6.2 mi East 10.4 mph - N/A   Partly Cloudy
12:00 PM 85 °F - 55 °F 26% 29.83 in 12 mi ESE 11.5 mph - -   Scattered Clouds
12:00 PM 86.0 °F 84.5 °F 55.4 °F 35% 30.02 in 6.2 mi ESE 11.5 mph - N/A   Partly Cloudy
1:00 PM 87.8 °F 86.1 °F 55.4 °F 33% 29.98 in 6.2 mi ESE 9.2 mph - N/A   Partly Cloudy
2:00 PM 86.0 °F 84.2 °F 53.6 °F 33% 29.95 in 6.2 mi ESE 9.2 mph - N/A   Scattered Clouds
3:00 PM 87 °F - 54 °F 23% 29.76 in 12 mi East 6.9 mph - -   Partly Cloudy
3:00 PM 86.0 °F 84.5 °F 55.4 °F 35% 29.94 in 6.2 mi East 6.9 mph - N/A   Scattered Clouds
4:00 PM 82.4 °F 82.0 °F 57.2 °F 42% 29.93 in 6.2 mi East 10.4 mph - N/A   Scattered Clouds
5:00 PM 80.6 °F 81.1 °F 59.0 °F 48% 29.95 in 6.2 mi East 9.2 mph - N/A   Partly Cloudy
6:00 PM 76 °F - 61 °F 49% 29.85 in 12 mi East 9.2 mph - -   Scattered Clouds
6:00 PM 75.2 °F - 60.8 °F 61% 29.97 in 6.2 mi East 9.2 mph - N/A   Partly Cloudy
7:00 PM 73.4 °F - 60.8 °F 65% 29.99 in - East 9.2 mph - N/A   Clear
8:00 PM 73.4 °F - 60.8 °F 65% 30.00 in - East 8.1 mph - N/A   Clear
9:00 PM 73 °F - 62 °F 59% 29.83 in 12 mi East 10.4 mph - -   Scattered Clouds
9:00 PM 73.4 °F - 60.8 °F 65% 30.01 in 6.2 mi East 10.4 mph - N/A   Partly Cloudy
10:00 PM 71.6 °F - 60.8 °F 69% 30.03 in - East 8.1 mph - N/A   Clear
11:00 PM 71.6 °F - 60.8 °F 69% 30.03 in - East 8.1 mph - N/A   Clear